カタログに戻る

YAMAL 101

運用中通信GEO
NORAD 25896·PAYLOAD·🇷🇺 Russia

打ち上げ Sep 6, 1999 から Baikonur Cosmodrome

Loading…

TLE

最新Source: Space-Track

元期: Sep 11, 2026, 00:17 UTC

1 25896U 99047A   26254.01245565  .00000096  00000-0  00000-0 0  9991
2 25896  14.6276 358.8345 0086810  65.2773 339.3708  0.99860052 98668

AllMySatでYAMAL 101をリアルタイム追跡

Download on the App Store